Location: Poughquag
(41.6090°N, 73.6820°W)
Time: 11:23:34
(UTC-05:00)

ISS - Pass Details

Date: 22 January 2020
Orbit: 415 x 422 km, 51.6° (Epoch: 26 February)

Event Time Altitude Azimuth Distance (km) Brightness Sun altitude
Rises 18:29:30 0° 243° (WSW) 2,369 1.6 -17.1°
Reaches altitude 10° 18:31:38 10° 248° (WSW) 1,506 0.3 -17.5°
Maximum altitude 18:34:58 58° 328° (NNW) 498 -3.4 -18.1°
Enters shadow 18:35:47 43° 22° (NNE) 606 -3.3 -18.3°
